This is the latest recevied weather packets stored in our database for station/object BRIVER. If no packets are shown the sender has not sent any weather packets the latest 10 day(s).
| Time | Temp. | Humidity | Pressure | Rain* | Wind** | Luminosity | Snow |
|---|---|---|---|---|---|---|---|
| 1777763735 | 15.56° C | 65% | 1010.9 hPa | 0 mm | - | - | - |
| 1777763616 | 15.56° C | 65% | 1010.9 hPa | 0 mm | - | - | - |
| 1777763435 | 15.56° C | 65% | 1010.9 hPa | 0 mm | - | - | - |
| 1777763135 | 16.11° C | 64% | 1010.7 hPa | 0 mm | - | - | - |
| 1777763076 | 16.11° C | 63% | 1010.8 hPa | 0 mm | - | - | - |
| 1777762835 | 16.11° C | 62% | 1010.7 hPa | 0 mm | - | - | - |
| 1777762535 | 17.22° C | 50% | 1010.8 hPa | 0 mm | - | - | - |
| 1777762235 | 17.22° C | 48% | 1011.1 hPa | 0 mm | - | - | - |
| 1777761996 | 17.78° C | 51% | 1011.1 hPa | 0 mm | - | - | - |
| 1777761935 | 17.78° C | 56% | 1011 hPa | 0 mm | - | - | - |
| 1777761635 | 17.22° C | 54% | 1010.9 hPa | 0 mm | - | - | - |
| 1777761456 | 16.67° C | 53% | 1011.2 hPa | 0 mm | - | - | - |
| 1777761335 | 16.67° C | 55% | 1011.1 hPa | 0 mm | - | - | - |
| 1777761035 | 17.22° C | 58% | 1011 hPa | 0 mm | - | - | - |
| 1777760916 | 17.22° C | 56% | 1011 hPa | 0 mm | - | - | - |
| 1777760735 | 17.22° C | 58% | 1010.9 hPa | 0 mm | - | - | - |
| 1777760435 | 17.78° C | 55% | 1010.9 hPa | 0 mm | - | - | - |
| 1777760376 | 17.78° C | 56% | 1010.9 hPa | 0 mm | - | - | - |
| 1777760135 | 17.78° C | 54% | 1010.9 hPa | 0 mm | - | - | - |
| 1777759835 | 17.78° C | 54% | 1010.9 hPa | 0 mm | - | - | - |
| 1777759535 | 17.78° C | 58% | 1010.9 hPa | 0 mm | - | - | - |
| 1777759296 | 17.78° C | 62% | 1010.9 hPa | 0 mm | - | - | - |
| 1777759235 | 17.78° C | 63% | 1010.9 hPa | 0 mm | - | - | - |
| 1777758935 | 17.22° C | 62% | 1011 hPa | 0 mm | - | - | - |
| 1777758756 | 17.22° C | 65% | 1011 hPa | 0 mm | - | - | - |
* Rain latest hour (hover to see other rain measurements)
** Current wind speed in m/s (hover to see current wind gust speed)